SKYSAT-C8 (42990 NORAD) Tracking and Keplerian Element Data

This shows tracking and keplerian element data for the satellite.

Feedback or suggestion? Click here.




ElementValue
Catalog42990
NameSKYSAT-C8
Epoch Orbit36908
Epoch Day159.63090438
Epoch Year2024
RAAN285.2496
Inclination97.3691
Eccentricity0.0005625
Argument of Perigee158.6415
Mean Anonmoly201.5061
Mean Motion15.29834832
Decay Rate0.00017069
L11 42990U 17068D 24159.63090438 .00017069 00000+0 59244-3 0 9999
L22 42990 97.3691 285.2496 0005625 158.6415 201.5061 15.29834832369081



Live tracking and technical data element details for SKYSAT-C8 (NORAD 42990). SKYSAT-C8 can be tracked NOW for your location showing map with azimuth and elevation plus other details from your city location.







IsCatalogInMostPopularTable: catalog: 42990, numindb: 690
Update: records affected: 1



GetName: 42990 SKYSAT-C8

Hit Count: updated at: Mon, 17 Jun 2024 22:55:50 GMT